Location: Unspecified
(44.0704°N, 88.6889°W)
Time: 11:14:56
(UTC+02:00)

Vanguard 2 Rocket - Pass Details

Date: 07 August 2020
Orbit: 554 x 3326 km, 32.9° (Epoch: 22 September)

Event Time Altitude Azimuth Distance (km) Brightness Sun altitude
Rises 09:12:19 0° 273° (W) 6,165 11.0 -27.5°
Reaches altitude 10° 09:17:25 10° 260° (W) 5,541 10.6 -27.2°
Enters shadow 09:22:09 18° 245° (WSW) 5,188 10.3 -26.9°
